TimeEST,TemperatureF,Dew PointF,Humidity,Sea Level PressureIn,VisibilityMPH,Wind Direction,Wind SpeedMPH,Gust SpeedMPH,PrecipitationIn,Events,Conditions,WindDirDegrees,DateUTC
12:15 AM,27.1,25.3,93,30.38,10.0,Calm,Calm,-,N/A,,Clear,0,2012-12-31 05:15:00
12:35 AM,26.8,25.0,93,30.36,7.0,Calm,Calm,-,N/A,,Clear,0,2012-12-31 05:35:00
1:15 AM,26.1,24.4,94,30.36,7.0,Calm,Calm,-,N/A,,Clear,0,2012-12-31 06:15:00
1:35 AM,25.0,23.4,94,30.37,7.0,Calm,Calm,-,N/A,,Clear,0,2012-12-31 06:35:00
1:55 AM,25.2,23.5,94,30.37,10.0,Calm,Calm,-,N/A,,Clear,0,2012-12-31 06:55:00
2:15 AM,25.2,23.5,94,30.36,7.0,Calm,Calm,-,N/A,,Clear,0,2012-12-31 07:15:00
2:35 AM,24.6,23.0,94,30.36,10.0,Calm,Calm,-,N/A,,Clear,0,2012-12-31 07:35:00
2:55 AM,24.4,23.0,94,30.37,7.0,Calm,Calm,-,N/A,,Clear,0,2012-12-31 07:55:00
3:15 AM,23.9,22.3,94,30.36,10.0,Calm,Calm,-,N/A,,Clear,0,2012-12-31 08:15:00
3:35 AM,23.7,22.3,94,30.36,10.0,Calm,Calm,-,N/A,,Clear,0,2012-12-31 08:35:00
3:55 AM,23.5,22.1,94,30.37,10.0,Calm,Calm,-,N/A,,Clear,0,2012-12-31 08:55:00
4:15 AM,23.7,22.1,94,30.37,10.0,Calm,Calm,-,N/A,,Clear,0,2012-12-31 09:15:00
4:35 AM,23.5,22.3,95,30.36,10.0,Calm,Calm,-,N/A,,Clear,0,2012-12-31 09:35:00
4:55 AM,23.0,21.6,94,30.36,10.0,Calm,Calm,-,N/A,,Clear,0,2012-12-31 09:55:00
5:15 AM,22.5,21.0,94,30.36,10.0,Calm,Calm,-,N/A,,Clear,0,2012-12-31 10:15:00
5:35 AM,22.8,21.2,93,30.36,10.0,Calm,Calm,-,N/A,,Clear,0,2012-12-31 10:35:00
5:55 AM,22.6,21.0,93,30.36,10.0,Calm,Calm,-,N/A,,Clear,0,2012-12-31 10:55:00
6:15 AM,23.2,21.6,94,30.37,10.0,Calm,Calm,-,N/A,,Clear,0,2012-12-31 11:15:00
6:35 AM,23.7,22.3,94,30.37,10.0,Calm,Calm,-,N/A,,Clear,0,2012-12-31 11:35:00
6:55 AM,23.5,21.7,93,30.36,10.0,Calm,Calm,-,N/A,,Clear,0,2012-12-31 11:55:00
7:15 AM,22.8,21.0,93,30.37,10.0,Calm,Calm,-,N/A,,Clear,0,2012-12-31 12:15:00
7:35 AM,22.6,21.0,93,30.36,10.0,Calm,Calm,-,N/A,,Clear,0,2012-12-31 12:35:00
7:55 AM,25.2,23.5,94,30.36,10.0,Calm,Calm,-,N/A,,Clear,0,2012-12-31 12:55:00
8:15 AM,27.3,25.5,93,30.37,10.0,Calm,Calm,-,N/A,,Clear,0,2012-12-31 13:15:00
8:35 AM,29.1,26.2,89,30.36,10.0,Calm,Calm,-,N/A,,Clear,0,2012-12-31 13:35:00
8:55 AM,30.4,27.1,88,30.36,10.0,Calm,Calm,-,N/A,,Clear,0,2012-12-31 13:55:00
9:15 AM,31.8,26.8,82,30.38,10.0,Calm,Calm,-,N/A,,Clear,0,2012-12-31 14:15:00
9:35 AM,32.9,26.6,78,30.38,10.0,Calm,Calm,-,N/A,,Clear,0,2012-12-31 14:35:00
9:55 AM,34.5,27.1,74,30.38,10.0,Calm,Calm,-,N/A,,Clear,0,2012-12-31 14:55:00
10:15 AM,37.0,27.3,68,30.37,10.0,SW,5.8,-,N/A,,Clear,230,2012-12-31 15:15:00
10:35 AM,39.9,25.3,56,30.38,10.0,SW,8.1,-,N/A,,Clear,220,2012-12-31 15:35:00
10:55 AM,40.5,23.4,51,30.36,10.0,SSW,3.5,-,N/A,,Clear,210,2012-12-31 15:55:00
11:15 AM,41.0,23.9,51,30.34,10.0,SSW,3.5,-,N/A,,Clear,210,2012-12-31 16:15:00
11:35 AM,42.1,23.2,47,30.34,10.0,SSW,10.4,-,N/A,,Clear,200,2012-12-31 16:35:00
11:55 AM,42.8,22.6,45,30.31,10.0,South,6.9,-,N/A,,Clear,190,2012-12-31 16:55:00
12:15 PM,44.2,23.7,44,30.29,10.0,SSW,5.8,-,N/A,,Clear,200,2012-12-31 17:15:00
12:35 PM,44.8,24.1,44,30.28,10.0,SW,8.1,-,N/A,,Clear,220,2012-12-31 17:35:00
12:55 PM,45.7,24.1,43,30.27,10.0,SSW,8.1,-,N/A,,Clear,210,2012-12-31 17:55:00
1:15 PM,46.9,24.3,41,30.24,10.0,SW,5.8,-,N/A,,Clear,230,2012-12-31 18:15:00
1:35 PM,48.7,24.8,39,30.23,10.0,SW,9.2,-,N/A,,Clear,220,2012-12-31 18:35:00
1:55 PM,51.1,25.0,36,30.23,10.0,SW,13.8,17.3,N/A,,Clear,220,2012-12-31 18:55:00
2:15 PM,51.3,24.8,36,30.21,10.0,WSW,9.2,-,N/A,,Clear,240,2012-12-31 19:15:00
2:35 PM,52.9,24.6,33,30.21,10.0,WSW,13.8,20.7,N/A,,Clear,240,2012-12-31 19:35:00
2:55 PM,52.2,23.2,32,30.21,10.0,SW,12.7,20.7,N/A,,Clear,230,2012-12-31 19:55:00
3:15 PM,51.4,23.7,34,30.20,10.0,SSW,9.2,-,N/A,,Clear,210,2012-12-31 20:15:00
3:35 PM,52.7,23.4,32,30.20,10.0,SW,11.5,-,N/A,,Clear,230,2012-12-31 20:35:00
3:55 PM,52.3,23.2,32,30.21,10.0,SW,10.4,-,N/A,,Clear,230,2012-12-31 20:55:00
4:15 PM,51.8,23.5,33,30.20,10.0,SSW,5.8,-,N/A,,Clear,210,2012-12-31 21:15:00
4:35 PM,51.3,24.6,35,30.19,10.0,SSW,6.9,-,N/A,,Clear,210,2012-12-31 21:35:00
4:55 PM,50.2,25.3,38,30.19,10.0,SW,5.8,-,N/A,,Clear,220,2012-12-31 21:55:00
5:35 PM,49.1,25.3,40,30.18,10.0,SSW,3.5,-,N/A,,Clear,200,2012-12-31 22:35:00
5:55 PM,48.6,25.7,41,30.19,10.0,WSW,3.5,-,N/A,,Clear,240,2012-12-31 22:55:00
6:15 PM,48.4,26.2,42,30.19,10.0,SW,3.5,-,N/A,,Scattered Clouds,220,2012-12-31 23:15:00
6:35 PM,48.2,26.2,42,30.20,10.0,Calm,Calm,-,N/A,,Scattered Clouds,0,2012-12-31 23:35:00
7:15 PM,47.8,27.3,45,30.19,10.0,SSW,3.5,-,N/A,,Overcast,210,2013-01-01 00:15:00
7:35 PM,47.8,27.1,45,30.18,10.0,SSW,3.5,-,N/A,,Overcast,200,2013-01-01 00:35:00
7:55 PM,47.8,27.0,44,30.17,10.0,South,4.6,-,N/A,,Overcast,190,2013-01-01 00:55:00
8:15 PM,48.0,26.6,43,30.16,10.0,SSW,4.6,-,N/A,,Overcast,200,2013-01-01 01:15:00
8:35 PM,47.7,26.8,44,30.17,10.0,SSW,3.5,-,N/A,,Overcast,210,2013-01-01 01:35:00
8:55 PM,47.1,27.0,46,30.16,10.0,South,4.6,-,N/A,,Overcast,190,2013-01-01 01:55:00
9:15 PM,46.8,27.3,47,30.14,10.0,South,5.8,-,N/A,,Mostly Cloudy,190,2013-01-01 02:15:00
9:35 PM,46.8,27.3,47,30.14,10.0,SSW,5.8,-,N/A,,Mostly Cloudy,210,2013-01-01 02:35:00
9:55 PM,46.8,27.5,47,30.14,10.0,SSW,3.5,-,N/A,,Clear,210,2013-01-01 02:55:00
10:15 PM,46.6,27.7,48,30.14,10.0,SSW,3.5,-,N/A,,Clear,210,2013-01-01 03:15:00
10:35 PM,45.9,28.2,50,30.14,10.0,SSW,4.6,-,N/A,,Clear,210,2013-01-01 03:35:00
10:55 PM,45.7,30.0,54,30.14,10.0,SSW,4.6,-,N/A,,Clear,200,2013-01-01 03:55:00
11:15 PM,46.2,31.5,56,30.13,10.0,SSW,5.8,-,N/A,,Clear,210,2013-01-01 04:15:00
11:35 PM,46.9,32.0,56,30.12,10.0,SW,5.8,-,N/A,,Clear,220,2013-01-01 04:35:00
11:55 PM,46.9,32.5,57,30.11,10.0,Calm,Calm,-,N/A,,Clear,0,2013-01-01 04:55:00